Theta_e
321 320 324 321 323 320 324 324 325 328 327 325 323 323 326 324 326 340 350 358 357 359 362 358 346 340 339 340 345 346 343 341 335 334 340 335 330 329 335 335 339 341 340 339 339 340 342 331 329
320 324 323 322 320 321 322 321 323 324 323 323 324 323 323 326 346 343 353 358 358 361 364 360 346 340 339 340 345 345 343 340 334 334 337 333 330 334 335 339 342 343 343 342 342 342 340 332 327
322 325 324 323 322 321 322 320 322 322 321 322 323 322 323 338 343 349 354 360 359 363 364 361 345 339 339 340 344 344 343 338 333 335 335 332 333 335 336 342 345 345 345 343 339 336 332 327 327
321 323 321 321 321 322 321 321 322 321 322 321 322 323 325 343 342 348 358 360 360 362 362 361 346 339 339 340 343 344 343 337 333 334 333 333 335 336 337 343 344 345 343 339 327 326 326 326 328
320 322 322 322 321 321 320 320 322 321 321 322 321 323 323 337 338 347 356 359 360 361 361 359 349 340 338 340 343 344 343 338 337 336 332 333 335 336 336 340 343 341 337 331 327 325 326 327 328
321 321 320 321 321 322 322 322 321 321 321 320 320 321 324 335 336 343 353 357 359 359 359 359 352 341 337 338 342 344 343 342 344 342 336 332 335 336 337 341 342 339 339 333 328 327 326 326 328
318 321 319 320 320 321 321 320 320 319 319 319 319 319 322 322 335 342 348 356 359 358 358 357 353 349 337 337 340 344 344 344 345 345 340 335 335 336 339 341 341 339 335 329 327 328 328 326 326
316 318 318 319 319 320 319 317 317 317 317 318 317 318 321 321 332 335 344 353 357 358 358 357 355 350 346 346 339 341 344 345 345 344 340 337 335 338 340 341 339 338 338 330 327 327 326 326 326
313 315 315 315 315 316 316 316 317 317 316 316 317 317 318 317 324 329 335 346 357 358 357 357 355 351 347 345 345 339 342 343 343 343 341 339 341 343 343 345 340 337 333 330 329 328 326 325 326
315 315 315 314 315 315 316 316 317 316 316 317 317 317 316 316 320 322 325 332 353 355 356 357 355 354 349 347 347 343 344 344 344 346 347 342 342 343 343 347 342 336 331 332 332 330 327 326 334
316 315 316 315 315 315 316 316 316 317 317 317 316 317 317 317 318 322 320 324 338 354 355 354 355 354 351 347 346 344 343 342 342 345 346 341 344 343 344 346 342 342 337 339 335 334 332 332 335
316 315 315 315 315 315 316 316 316 316 317 317 317 317 317 317 318 320 320 320 330 348 353 355 355 354 352 348 347 346 344 343 343 344 345 343 344 344 340 341 340 342 340 339 338 334 333 334 338
317 317 317 317 317 317 317 317 316 316 316 316 317 317 317 317 318 317 317 319 322 331 349 355 355 355 353 351 348 347 346 345 343 344 345 343 341 342 341 342 342 341 339 338 335 333 333 335 340
318 318 318 318 317 317 317 317 317 316 315 315 316 317 317 317 318 317 317 317 323 325 332 345 354 355 355 352 349 347 347 345 344 342 342 342 340 343 343 344 341 339 337 334 333 332 334 338 341
318 319 318 318 317 317 317 317 317 317 317 317 318 319 318 319 318 319 318 318 319 324 331 341 353 354 356 353 351 349 347 345 344 343 343 342 342 346 342 339 338 338 339 335 335 338 342 344 347
318 318 320 319 318 317 317 318 317 317 318 319 318 318 319 319 319 319 318 319 318 322 330 342 350 355 354 355 352 350 348 346 345 343 344 344 344 346 343 338 338 338 340 336 336 339 340 342 346
319 319 318 317 317 317 317 318 318 317 318 319 319 319 319 320 320 319 319 319 318 320 325 338 350 354 354 355 354 351 349 347 346 344 345 344 343 344 342 338 338 344 339 337 339 342 343 345 347
316 316 316 316 316 315 316 316 317 318 318 318 319 319 319 319 320 319 320 320 320 319 324 329 341 352 353 354 352 352 350 348 346 344 344 344 343 342 342 338 343 345 341 342 344 345 346 346 347
315 315 315 315 315 317 317 317 317 318 319 318 319 319 319 320 320 319 319 320 321 319 321 326 334 344 351 352 352 351 350 348 347 345 344 344 342 341 342 337 346 346 344 344 349 349 348 346 345
314 315 315 315 316 318 318 319 319 319 319 319 319 319 319 319 320 320 319 320 321 322 322 331 335 342 350 352 352 351 350 349 347 345 343 343 342 341 341 340 345 347 345 348 349 348 345 343 342
315 316 317 318 317 318 317 320 319 319 320 319 319 319 319 319 320 320 321 320 320 322 327 333 339 344 347 350 350 350 349 348 347 345 343 342 342 341 342 347 346 349 346 348 348 347 344 343 342
316 315 316 318 319 320 318 323 319 319 319 320 320 320 320 320 320 320 320 321 320 320 326 330 337 343 346 348 349 349 349 350 348 345 343 343 342 341 341 348 349 350 346 345 347 346 345 345 342
316 316 317 319 320 320 320 321 320 319 319 319 319 320 320 321 320 320 321 320 320 320 321 328 334 342 345 348 347 346 346 345 347 346 344 344 343 341 340 344 349 350 347 347 346 346 347 345 343
314 316 318 319 321 324 320 320 319 319 319 319 320 320 320 320 320 320 320 319 320 320 320 323 334 339 343 348 346 345 347 346 348 346 345 344 343 341 339 341 349 349 347 346 346 346 344 341 338
314 317 326 325 329 326 319 320 319 319 318 318 318 319 320 320 320 321 321 321 320 320 321 321 328 338 342 343 347 346 346 346 347 347 345 344 342 340 340 345 349 348 347 346 343 340 336 334 330
315 318 327 326 323 321 319 320 319 318 318 317 318 319 319 319 320 321 321 321 320 320 320 322 324 335 340 341 344 345 345 346 346 346 344 344 343 340 340 346 348 346 343 339 337 334 331 328 326
317 322 320 325 322 325 320 318 318 317 317 318 319 319 319 320 321 321 321 321 320 321 321 321 323 330 338 340 342 345 344 344 345 344 342 344 342 341 343 345 344 338 334 333 331 328 326 324 324
317 318 322 325 326 325 318 319 317 317 317 318 318 320 321 321 320 320 321 322 322 323 323 321 323 328 334 339 339 342 346 343 342 343 339 336 340 340 341 342 336 334 331 328 327 325 323 322 320
316 321 321 320 324 323 322 319 318 318 318 318 319 319 320 320 320 319 319 319 319 321 323 326 322 323 330 335 338 339 344 345 342 343 341 339 341 342 341 335 332 329 326 324 324 322 319 318 316
315 318 319 328 321 321 321 323 317 318 317 318 319 318 318 317 318 318 317 317 318 319 320 323 328 322 324 332 336 337 341 344 342 342 343 342 340 338 333 329 325 324 321 321 318 317 315 315 314
Wind_Speed
8 3 3 6 7 6 13 4 3 6 5 2 6 7 11 8 7 4 12 17 7 11 25 31 33 30 28 27 31 32 30 28 29 31 30 29 30 30 29 26 25 21 19 17 16 13 11 11 12
4 2 6 3 8 11 11 4 9 1 3 6 5 4 6 2 11 9 10 20 5 13 22 26 35 32 29 28 31 32 31 28 29 32 32 30 30 29 28 26 24 20 17 16 14 12 11 11 11
2 3 5 4 9 13 10 5 4 1 2 6 4 3 4 4 10 10 18 13 2 14 21 23 34 32 29 29 32 33 32 30 30 30 31 31 30 28 27 25 22 18 17 15 13 11 10 11 10
5 6 4 9 13 6 6 5 1 3 4 3 6 5 2 6 11 14 13 9 4 14 20 21 33 31 29 29 32 32 32 30 30 30 29 29 29 27 26 24 20 16 15 14 12 11 10 11 10
6 4 9 13 15 3 5 3 2 4 4 6 9 4 6 5 9 12 10 6 3 14 19 17 30 31 29 28 32 33 32 30 29 27 27 28 27 26 23 21 17 14 13 13 12 11 10 10 9
6 5 9 14 16 8 7 4 8 7 6 10 9 10 5 2 9 11 10 3 3 11 17 18 24 30 29 28 31 33 31 30 29 26 25 26 26 26 23 19 16 13 12 10 10 10 9 9 8
11 8 15 16 8 10 7 1 8 7 12 10 8 11 7 5 7 9 8 3 6 10 13 17 20 23 28 28 29 30 30 30 28 27 25 23 23 23 22 19 16 13 11 10 9 9 8 7 7
4 6 10 13 11 16 4 5 5 10 13 9 10 7 6 9 5 5 6 3 7 13 14 17 21 21 21 20 26 26 27 28 28 26 24 24 24 23 20 18 16 14 11 10 10 9 8 7 8
2 6 9 11 7 10 4 12 10 8 15 15 14 17 15 10 7 8 3 2 6 10 15 16 21 22 22 21 21 25 25 25 25 23 24 23 20 21 19 17 17 14 12 11 10 9 9 9 9
4 6 6 6 7 10 11 13 14 14 15 14 13 16 19 19 10 7 7 3 6 10 14 16 18 22 22 20 21 20 20 20 20 19 20 20 19 20 18 16 16 15 14 13 11 10 9 9 8
1 6 4 10 10 8 14 17 16 16 18 15 11 13 13 10 12 11 10 7 7 14 15 18 20 20 23 21 21 20 20 20 20 20 20 19 19 19 19 15 15 12 12 10 9 9 9 10 9
9 2 6 11 10 15 18 18 21 20 20 16 17 13 15 14 15 13 11 12 9 13 19 20 22 25 23 22 22 21 21 21 20 21 22 20 20 19 18 17 16 15 13 11 10 11 10 11 10
7 6 9 13 16 16 15 17 20 23 22 21 20 17 18 18 16 18 15 13 13 15 19 24 25 25 26 23 23 22 21 21 20 21 22 21 20 19 18 16 15 15 13 13 11 11 11 11 10
9 14 17 16 13 7 13 17 14 14 16 19 17 16 17 17 17 19 20 17 17 18 20 23 29 29 28 27 25 23 22 22 21 21 22 22 20 19 19 16 16 14 13 12 12 12 12 12 11
14 18 17 15 8 14 18 18 23 13 13 14 16 17 17 16 17 16 18 19 19 19 20 22 27 31 32 31 27 24 24 22 22 21 21 22 21 20 18 17 16 14 12 11 12 12 12 11 10
18 15 12 12 13 13 10 22 19 16 14 18 17 15 17 17 17 19 17 16 19 20 19 22 25 29 32 32 30 27 24 24 22 21 20 21 22 19 19 17 16 13 12 13 13 13 13 12 11
15 16 22 26 20 18 20 28 23 18 17 20 21 20 20 19 17 20 18 14 18 19 21 20 24 26 32 29 29 28 26 24 23 22 21 20 23 21 20 17 15 15 14 14 14 13 12 11 9
21 23 22 24 24 24 27 29 25 24 24 24 24 22 21 21 19 21 18 15 13 18 20 21 23 27 30 29 28 26 26 25 23 23 22 20 23 23 20 17 15 16 15 15 14 13 12 10 9
17 22 26 26 23 23 27 27 27 24 24 25 23 22 22 23 19 22 22 17 13 15 18 22 24 27 30 30 29 25 27 27 25 24 23 22 22 23 21 19 18 18 16 15 14 13 13 10 9
21 23 25 24 20 18 24 30 29 26 25 25 24 24 24 23 21 20 24 21 18 15 19 21 24 25 30 29 31 26 27 27 27 24 23 23 25 23 24 22 21 19 17 15 16 15 13 9 11
18 19 20 22 23 22 25 30 20 18 16 20 25 25 25 25 23 22 20 25 22 17 19 22 24 25 27 28 29 23 21 20 21 24 23 24 24 27 23 21 20 19 18 18 17 16 14 10 10
17 16 21 23 21 19 19 24 25 21 20 17 18 20 22 22 22 22 22 22 25 21 18 19 21 25 27 29 25 26 23 24 26 27 25 25 28 28 27 22 20 20 20 16 17 16 15 10 9
18 17 19 24 24 24 24 13 19 17 18 12 8 9 13 15 18 20 21 26 29 27 23 21 20 24 26 30 28 27 26 28 23 24 25 24 25 22 26 23 21 19 18 16 16 16 14 11 7
19 17 19 25 13 9 15 8 10 9 10 8 5 4 4 11 11 14 19 23 26 28 26 23 21 23 25 28 32 31 27 25 24 24 26 29 24 25 24 24 21 18 15 14 14 12 11 7 7
16 13 8 5 5 10 10 11 11 17 12 9 10 11 5 4 6 9 14 15 19 23 26 24 22 21 22 25 29 32 31 29 26 30 29 27 25 26 24 23 19 17 15 14 13 11 9 8 9
18 9 6 8 12 19 20 9 7 17 13 8 8 10 7 5 3 4 6 9 14 20 21 23 23 21 22 24 27 29 32 30 29 29 27 24 23 23 24 23 19 16 17 17 15 12 12 12 12
9 10 10 7 19 13 9 14 14 4 3 2 5 5 5 1 2 4 3 2 6 10 10 16 22 22 21 22 23 25 28 28 26 27 28 24 23 20 22 21 20 18 16 17 18 17 16 15 14
10 7 6 4 6 13 11 18 13 5 11 4 2 2 2 2 0 4 4 4 5 5 7 10 13 20 22 22 22 23 25 29 32 32 32 30 24 20 21 23 26 21 20 19 19 19 17 18 15
11 5 6 4 6 10 15 8 11 8 14 18 4 4 6 6 5 7 7 7 8 8 8 5 9 15 20 22 22 23 25 30 31 28 28 35 31 36 34 28 25 26 23 21 19 18 18 20 20
12 15 13 5 13 14 12 19 21 15 10 13 18 7 8 9 10 9 9 9 11 11 11 8 4 11 18 21 22 23 24 26 28 26 30 31 38 33 31 31 30 24 24 21 24 19 19 18 18
Wind_Direction
337 298 244 234 239 236 248 194 323 193 190 27 311 283 337 320 334 21 360 8 329 188 174 176 181 181 176 173 178 179 176 172 169 166 166 167 163 160 160 155 152 153 152 153 155 155 150 146 145
306 255 223 252 252 232 235 97 202 115 358 310 290 286 240 105 45 324 354 337 327 176 177 176 182 181 176 173 180 179 178 172 172 168 168 168 166 163 162 156 155 155 156 157 159 160 160 155 153
219 228 247 240 242 249 263 133 140 233 320 345 322 344 352 24 1 350 345 335 234 177 178 179 185 181 175 174 179 179 178 173 172 172 171 169 168 166 164 160 160 160 160 162 165 167 165 158 157
212 195 215 243 240 251 304 141 172 250 200 309 355 254 118 55 346 354 342 334 213 183 178 182 184 183 177 175 177 181 179 174 173 174 173 171 169 168 168 167 165 167 166 165 168 167 167 162 163
217 260 243 241 246 252 229 197 255 250 286 299 332 281 289 48 348 359 0 347 219 182 178 173 180 184 180 176 179 182 180 176 174 174 174 173 172 169 170 171 171 170 167 167 167 167 167 164 168
208 282 239 242 233 227 234 221 276 252 288 300 290 312 288 143 355 359 7 27 204 183 177 169 178 184 182 179 181 183 182 179 177 176 176 175 174 172 171 171 171 169 169 171 170 168 166 167 172
262 234 252 264 271 258 242 277 249 291 281 277 316 280 293 269 9 359 11 22 173 180 168 161 173 176 184 182 182 186 185 183 183 179 176 176 175 175 171 171 171 169 170 170 167 166 166 169 176
277 264 260 246 255 243 159 274 263 267 282 310 272 261 253 10 334 343 6 23 166 177 168 170 175 176 175 177 185 185 186 186 183 181 179 177 175 177 174 173 169 167 170 169 168 169 170 175 183
254 246 254 261 253 258 253 290 290 292 275 273 266 270 285 307 299 297 301 14 158 184 171 175 181 179 179 174 177 183 186 187 186 183 182 178 170 173 177 173 181 174 177 173 175 174 177 184 185
284 265 330 351 307 277 290 280 297 291 277 269 265 256 259 267 267 270 286 273 191 174 174 176 182 182 181 177 172 170 175 179 180 179 178 175 177 179 180 183 188 183 183 180 181 185 185 179 199
344 298 329 279 286 279 282 283 281 273 270 266 266 284 280 249 261 268 276 262 226 196 180 179 176 184 184 181 174 173 175 178 179 178 179 181 180 181 182 186 185 189 191 190 186 194 193 205 210
285 338 303 298 291 274 275 281 276 266 271 281 271 272 272 265 265 248 264 272 225 202 196 189 186 185 190 183 181 179 180 180 181 182 181 182 183 184 191 190 192 193 195 193 195 205 204 202 205
266 323 293 289 284 278 284 270 271 271 270 262 261 260 264 267 260 255 259 256 256 226 211 199 193 192 188 187 185 185 185 185 185 185 187 188 188 186 190 193 194 195 190 195 197 200 199 199 208
328 300 294 284 286 252 275 277 274 271 269 258 258 259 255 258 261 261 263 256 233 232 222 216 198 195 191 191 188 186 188 187 186 188 191 191 191 188 190 189 193 193 194 192 193 192 193 198 210
295 291 285 267 256 276 302 272 258 246 260 255 259 261 250 255 254 257 258 255 239 230 226 219 206 199 197 194 190 188 190 190 191 190 193 193 191 190 190 189 194 195 194 191 188 188 190 202 213
274 291 275 300 296 301 264 280 286 278 241 269 263 257 254 253 252 254 257 250 241 234 219 218 214 201 200 200 192 192 191 192 194 192 192 197 195 193 191 190 193 193 192 190 192 194 197 207 211
275 284 299 300 300 291 277 276 280 273 271 260 266 263 257 249 244 245 242 243 235 227 225 218 215 214 199 203 198 195 191 194 195 192 190 195 198 197 193 195 192 188 192 195 197 202 209 204 211
313 301 297 293 301 298 286 281 281 277 272 265 263 252 252 251 246 244 232 238 245 223 217 222 218 219 207 200 201 195 192 195 197 196 193 191 198 198 192 192 189 187 192 195 201 206 206 211 199
295 290 291 291 297 295 287 284 279 278 271 263 260 256 247 249 248 241 236 238 235 218 214 214 215 218 213 207 197 182 185 192 195 198 195 188 195 198 190 192 191 189 197 198 194 190 181 182 178
295 292 289 298 307 306 296 285 285 281 271 264 259 254 246 245 239 239 236 234 228 217 212 211 214 214 215 203 200 196 197 198 199 198 197 190 187 195 192 194 195 192 194 191 188 188 185 193 189
294 290 300 305 304 290 284 280 285 287 270 257 252 251 251 242 238 230 230 227 227 211 208 205 208 208 211 207 202 197 188 198 194 196 197 193 192 186 197 194 198 195 196 193 191 189 197 194 195
302 315 305 295 300 296 307 291 292 288 281 270 264 251 245 237 229 226 220 223 221 221 209 212 207 205 206 208 196 196 184 191 200 195 191 189 190 192 193 194 200 200 200 194 195 192 203 212 194
299 306 302 289 286 287 282 267 290 281 272 289 274 257 243 229 224 214 217 217 218 219 215 212 207 205 205 201 205 202 207 206 198 197 185 191 190 193 199 197 201 200 198 195 190 188 198 203 224
302 291 296 280 276 276 279 309 301 316 345 337 346 31 335 223 213 214 214 220 221 222 223 216 210 211 208 202 200 207 206 207 194 194 188 193 186 190 196 197 202 201 198 187 183 188 186 182 183
304 310 295 274 223 274 339 293 295 305 318 318 315 298 281 232 237 208 212 221 224 223 225 224 216 213 209 207 208 205 212 215 207 197 190 186 183 190 185 193 195 194 186 177 169 167 148 149 142
297 298 271 296 308 305 313 280 309 331 308 279 300 269 246 228 11 297 257 231 227 222 226 228 222 214 209 208 209 207 203 207 204 196 183 186 183 188 178 186 185 185 178 163 153 148 137 138 132
308 269 293 284 268 265 251 252 241 198 76 93 50 23 207 123 27 26 28 345 268 269 249 234 226 216 211 210 211 211 194 196 196 187 166 166 170 177 171 182 172 163 159 154 144 142 135 134 129
238 275 277 221 280 298 294 307 293 17 348 42 84 37 165 187 28 47 28 26 342 312 248 234 237 219 214 210 215 216 207 199 204 204 185 173 185 175 174 176 164 153 151 148 139 134 140 133 118
279 249 236 274 273 287 299 285 19 341 311 305 317 281 291 295 310 329 341 350 345 342 325 281 233 221 215 212 212 222 214 197 206 191 186 171 184 175 176 164 152 146 141 138 138 136 137 120 113
285 287 286 262 278 289 290 283 279 292 313 322 303 275 264 277 283 294 307 321 318 325 327 329 319 237 217 211 209 214 218 208 202 192 183 170 171 161 152 142 135 131 129 127 125 124 113 110 112